Terminal Aerodrome Forecast
Issued by NWS

Home | Current Version | Previous Version | Text Only | Print | Product List | Glossary On
Versions: 1 2 3 4 5 6 7 8 9 10 11 12 13 14 15 16 17 18 19 20 21 22 23 24 25 26 27 28 29 30 31 32 33 34 35
000
FTUS44 KBMX 230814 AAA
TAFEET
TAF AMD
KEET 230814Z 2308/2406 30010G17KT 6SM -RA BR OVC009
     FM231000 31015G25KT P6SM OVC015
     FM231800 31012G18KT P6SM BKN025
     FM240000 31012KT P6SM OVC007=

USA.gov is the U.S. government's official web portal to all federal, state and local government web resources and services.